Theta_e
332 319 324 319 307 307 303 308 318 317 323 334 335 331 324 325 322 312 334 347 355 356 359 359 363 364 359 357 357 355 353 353 352 351 351 351 353 352 352 353 354 352 351 350 351 351 350 348 346
321 316 314 306 303 299 302 314 314 318 322 326 334 334 330 323 330 334 338 352 356 356 357 358 363 363 359 358 357 356 353 353 353 353 353 353 354 353 353 354 353 352 352 351 350 349 348 346 345
327 318 307 301 300 301 305 316 318 319 324 325 326 333 333 326 332 333 344 353 355 353 355 358 364 362 360 358 357 356 355 354 353 353 354 354 354 355 356 355 354 352 351 350 348 347 346 346 346
312 309 305 300 298 302 310 317 321 321 322 325 327 322 330 339 332 338 350 353 352 352 354 361 363 362 360 358 357 356 355 354 353 354 354 354 354 354 356 355 354 352 350 348 348 346 346 347 347
308 301 295 293 297 304 313 320 321 318 319 321 324 320 325 334 341 344 346 351 350 352 354 357 362 362 360 358 357 357 356 355 355 354 354 354 354 354 355 354 352 350 349 348 347 346 346 347 349
302 300 294 292 297 305 316 319 320 318 319 320 318 321 324 334 336 338 345 348 353 353 354 356 361 361 360 359 359 358 358 358 356 355 354 353 353 353 353 353 353 351 350 348 347 348 349 350 351
300 297 293 294 298 300 316 320 315 314 315 316 321 319 325 329 335 336 345 349 351 354 354 354 355 358 360 360 359 359 359 358 358 357 356 355 353 354 354 354 354 353 353 352 351 351 352 353 353
302 299 297 296 297 298 318 319 318 317 318 325 326 317 318 332 333 339 344 346 348 352 352 352 352 351 352 354 358 358 359 359 358 357 356 356 355 355 355 354 354 354 354 354 355 355 355 355 354
303 295 295 296 300 303 318 316 322 325 321 325 329 326 327 334 340 340 337 338 344 347 350 351 350 350 351 351 355 358 358 358 357 356 357 355 350 351 353 355 355 356 356 356 356 356 356 356 356
299 294 296 303 304 302 313 315 319 320 321 320 323 330 332 331 336 335 333 334 336 340 344 348 350 350 350 353 350 350 351 351 352 352 351 349 347 346 351 353 356 357 358 358 357 356 357 357 351
298 296 302 305 306 306 311 317 321 318 315 319 319 323 326 327 328 335 334 335 334 337 341 345 347 349 349 349 350 349 348 349 349 349 348 347 348 344 348 347 350 351 356 351 352 351 352 350 349
295 301 302 303 305 306 304 316 320 320 319 324 324 325 324 324 326 332 335 336 335 336 338 341 343 344 346 347 349 347 346 346 345 345 344 343 341 340 340 344 345 347 348 348 348 346 345 345 347
296 301 301 303 300 305 307 306 313 319 325 327 328 329 326 327 329 332 337 338 338 336 337 339 340 340 341 345 344 344 344 344 344 342 343 344 340 338 337 339 345 345 345 346 344 343 339 342 344
300 300 301 302 301 302 303 304 306 310 321 326 328 330 330 330 332 331 334 334 331 337 337 339 339 338 339 343 339 339 341 341 339 339 341 344 342 340 338 335 338 342 343 343 342 340 340 340 343
300 297 300 300 300 301 304 300 302 308 311 316 321 326 338 337 338 333 333 333 331 335 337 337 338 340 340 341 339 338 339 339 337 338 339 341 342 339 337 338 335 335 336 336 335 337 337 338 341
298 295 291 298 302 303 303 295 303 306 310 311 333 337 339 341 343 346 344 340 337 338 339 339 342 344 342 343 346 346 343 341 341 341 340 341 341 341 340 338 337 337 336 336 334 332 332 335 337
293 291 294 297 301 302 301 297 302 306 308 318 331 334 337 338 340 342 345 346 346 343 344 343 344 344 343 344 349 347 348 346 346 344 344 344 343 344 341 342 340 340 340 339 340 338 336 334 331
290 291 293 295 299 299 297 298 301 306 307 327 328 330 333 334 336 339 343 344 344 346 347 347 349 349 350 350 349 348 346 345 342 342 342 347 349 349 347 343 341 341 338 334 332 333 332 331 328
297 296 295 300 302 298 299 300 300 306 307 318 325 327 329 330 334 337 339 340 341 342 344 345 345 345 347 348 348 348 342 340 340 340 338 338 340 341 341 341 341 337 333 331 330 329 328 328 327
298 296 296 301 302 299 296 298 299 305 306 318 324 326 327 327 329 332 333 335 336 337 339 341 341 341 343 345 346 345 340 340 337 336 336 336 337 339 337 337 336 337 334 332 330 327 324 324 326
297 295 297 297 301 299 299 297 298 305 306 316 326 327 327 327 327 329 330 331 333 333 335 336 337 338 341 344 345 342 340 336 334 333 332 335 335 336 333 333 333 331 330 329 330 332 328 325 325
293 301 301 300 296 291 297 288 294 299 305 315 324 324 325 326 328 329 330 329 331 333 335 334 334 335 338 340 338 337 334 332 333 332 331 330 333 333 333 330 328 328 326 323 326 328 329 327 328
298 303 300 301 295 291 293 289 293 297 298 303 321 323 325 327 328 329 330 331 332 332 330 329 330 331 332 334 335 335 333 334 334 329 325 322 324 325 325 323 319 317 318 321 320 320 319 323 327
304 300 297 294 292 289 291 291 293 294 299 301 320 323 325 326 328 329 330 330 327 326 325 323 324 324 328 328 325 326 324 322 327 324 321 319 317 316 316 317 316 315 313 315 316 317 317 317 318
300 292 287 285 286 287 294 291 295 300 302 304 316 321 324 326 327 328 325 324 323 321 320 320 320 318 320 321 318 317 316 315 318 316 314 312 313 313 313 314 313 313 314 315 313 315 314 316 313
297 295 288 283 284 290 294 289 296 303 304 305 318 323 325 325 327 325 323 322 320 320 319 319 318 317 317 318 315 315 316 317 315 314 314 312 312 313 314 314 313 313 314 314 312 311 311 313 312
298 292 297 291 289 286 289 294 299 304 310 310 312 321 323 324 324 322 320 319 320 319 319 317 316 315 314 316 316 316 316 315 314 314 314 312 312 316 312 312 310 310 310 312 311 309 309 309 311
300 301 294 289 283 283 288 290 292 297 305 310 315 318 321 322 322 320 318 319 321 321 318 318 317 314 314 316 316 317 315 315 314 313 313 312 311 310 309 308 307 307 307 308 304 303 305 307 310
298 295 295 294 290 288 287 289 297 298 305 310 316 319 320 321 321 318 319 320 321 320 320 318 317 316 316 316 315 315 316 315 314 312 312 311 309 308 308 308 307 306 305 305 304 304 306 308 306
301 298 297 290 288 291 288 290 304 307 309 311 315 319 320 322 320 319 319 320 320 320 319 318 318 318 316 317 316 316 316 315 312 312 310 309 307 307 307 307 306 306 306 305 304 304 307 304 302
Wind_Speed
5 4 2 4 4 4 4 4 3 6 19 16 14 8 5 4 2 4 1 12 20 15 14 15 18 17 17 16 15 15 15 15 15 16 16 16 16 16 15 14 13 14 14 12 11 10 11 11 11
3 2 3 2 5 4 6 8 15 10 2 4 13 8 10 5 6 12 10 13 16 17 13 14 19 18 18 18 16 15 15 15 16 15 15 15 15 15 14 12 13 12 11 10 8 7 7 7 6
3 1 3 4 3 4 5 15 14 19 16 7 6 9 5 3 9 8 13 16 14 13 11 13 18 17 17 18 17 16 15 15 15 15 15 14 13 12 11 10 10 11 9 8 7 5 4 4 3
1 5 4 4 5 7 5 8 19 19 13 8 7 7 9 3 7 9 18 17 13 12 10 15 16 16 16 17 17 16 16 15 15 14 14 13 12 11 10 9 9 9 8 7 5 3 2 2 2
4 4 3 1 6 6 2 5 4 13 5 6 14 5 2 5 19 20 17 13 14 12 9 12 16 15 15 16 16 15 15 14 14 14 13 12 12 10 9 9 8 8 7 6 4 3 1 4 6
4 4 4 3 6 1 6 5 10 7 6 6 8 6 3 16 19 16 16 13 12 16 11 10 15 14 14 15 15 14 12 12 12 12 12 11 10 9 8 7 7 6 6 5 4 3 4 5 6
5 4 4 3 4 2 4 7 3 8 6 4 2 6 7 16 14 17 15 14 15 13 11 7 8 11 14 13 13 14 13 12 11 11 10 9 9 8 7 6 6 6 6 6 5 6 6 7 8
5 4 3 2 4 6 4 1 1 5 5 5 6 5 4 10 15 16 14 12 12 13 12 11 8 6 6 7 14 14 13 12 11 10 10 9 9 9 9 8 8 8 8 8 8 8 9 10 9
3 4 2 4 5 3 4 6 4 3 4 2 3 2 4 18 20 16 13 8 8 9 11 12 12 9 7 6 9 12 15 13 12 11 11 8 4 5 7 8 11 11 12 12 11 11 11 12 11
4 4 5 6 3 3 8 2 8 5 5 5 1 2 2 8 18 19 15 12 12 12 11 10 12 12 10 8 6 6 7 5 6 6 6 5 5 5 7 9 13 14 14 12 13 12 13 12 4
3 5 5 12 8 7 9 7 2 8 4 8 15 11 10 7 11 17 15 15 14 12 12 13 12 13 13 10 6 4 3 4 5 7 6 5 5 4 4 3 4 6 11 5 8 6 6 7 2
3 5 6 10 5 7 2 11 6 8 11 17 12 8 12 11 11 17 15 14 16 17 15 15 14 12 12 7 7 6 5 5 5 6 7 5 3 4 4 4 6 5 4 6 5 4 5 5 5
5 9 7 10 4 10 4 5 11 12 9 6 9 8 11 13 6 13 18 17 14 16 15 15 15 13 12 9 8 6 7 7 7 6 6 5 4 5 4 5 4 5 4 6 5 6 5 5 7
5 6 11 9 9 6 5 4 6 11 7 7 11 12 5 5 4 14 20 17 10 14 16 15 14 12 11 11 11 8 7 6 5 4 6 9 6 5 4 4 4 4 4 5 5 5 6 5 6
5 6 9 7 5 6 6 5 5 7 7 14 8 6 8 3 8 13 16 9 6 8 10 15 14 11 12 12 10 7 7 6 5 6 7 8 7 6 5 4 4 4 4 6 5 5 4 2 3
5 1 4 8 3 5 9 10 11 7 11 11 12 15 14 11 11 11 10 5 10 7 9 8 11 11 9 10 8 7 7 5 6 6 5 7 7 7 4 3 3 3 3 3 3 2 2 4 3
5 5 7 9 5 4 6 11 9 7 9 11 13 14 15 14 13 10 11 9 9 8 8 9 7 7 7 6 5 5 7 5 5 2 1 3 4 2 3 3 4 5 4 6 4 4 4 4 3
5 4 5 7 7 5 6 12 6 9 11 17 12 13 13 13 10 10 9 9 9 8 8 8 6 4 6 4 3 1 1 6 7 6 6 5 5 4 4 4 5 4 4 4 3 4 4 3 2
4 5 10 15 12 5 16 19 11 11 11 13 13 14 12 13 7 10 10 7 8 8 10 7 9 6 4 2 2 1 4 4 6 9 11 11 10 8 6 4 5 5 5 4 4 3 5 4 4
7 8 16 16 9 6 4 17 9 9 10 21 18 13 15 10 7 7 8 8 7 7 8 7 8 6 4 2 3 5 5 6 7 6 9 8 8 7 6 5 6 5 3 6 6 5 3 3 4
11 7 15 16 6 3 4 9 1 7 4 13 14 16 13 18 14 9 8 8 8 7 7 8 7 7 5 6 9 8 6 4 4 5 5 6 8 8 8 7 4 5 5 5 5 4 3 2 2
10 11 15 9 0 5 6 5 5 5 10 15 16 13 14 14 11 10 12 9 8 8 6 7 7 7 6 8 6 8 6 8 3 4 5 5 5 5 8 5 6 7 4 6 4 4 3 2 3
14 17 14 9 4 2 1 5 10 4 8 8 14 16 15 15 15 14 13 12 9 9 7 6 7 8 7 8 9 8 8 7 7 6 8 6 5 7 7 7 7 6 5 5 6 5 5 3 3
11 6 4 4 3 8 7 8 8 6 9 6 10 10 12 13 13 12 11 13 11 9 8 7 8 6 7 9 8 8 9 7 9 8 6 4 4 4 6 6 6 5 5 5 5 5 6 5 4
6 5 5 5 3 8 6 6 10 7 10 10 18 18 18 18 18 17 19 15 12 11 8 7 8 7 7 10 10 10 9 11 12 7 5 5 3 3 4 4 6 4 4 5 5 5 6 4 4
8 9 7 10 6 10 6 7 11 11 11 10 19 24 18 16 15 18 18 15 14 13 9 9 8 8 7 8 9 8 9 7 6 6 5 4 4 3 3 5 5 6 6 5 5 3 4 5 5
9 5 9 8 2 1 6 8 6 4 7 13 13 21 21 18 19 20 17 14 14 11 10 10 9 7 8 8 7 7 7 9 8 7 6 4 4 4 6 7 7 7 7 6 6 4 5 5 5
9 6 7 1 4 11 5 7 8 7 6 2 13 19 18 17 19 18 17 15 13 13 10 9 9 7 6 8 7 7 7 7 7 7 7 7 6 6 6 6 6 7 6 6 6 4 4 6 4
4 4 3 3 6 12 16 9 8 12 12 15 17 20 22 23 22 20 18 14 16 13 12 12 11 10 8 7 6 8 6 6 7 6 6 6 6 6 6 5 5 6 6 6 6 6 5 5 5
8 9 6 4 8 2 3 7 1 9 6 4 7 12 18 24 20 20 18 19 18 17 15 14 12 11 9 8 7 8 7 7 7 6 7 6 6 4 4 4 5 5 6 7 7 6 4 5 6
Wind_Direction
298 296 151 56 57 81 159 22 358 357 63 55 67 92 91 63 181 188 203 140 138 147 148 145 140 138 134 132 128 124 120 117 113 112 112 114 113 113 114 116 114 109 106 103 101 95 86 94 100
330 315 51 84 70 27 48 129 53 19 315 2 64 47 55 77 65 119 108 140 147 143 147 148 145 143 142 140 136 130 127 125 122 121 121 121 120 121 122 117 112 110 108 107 105 97 86 84 96
279 294 66 93 108 140 116 124 117 72 41 46 51 32 33 78 116 136 133 143 151 136 142 152 146 146 147 144 141 136 134 133 132 131 131 130 127 125 119 116 116 115 116 111 100 82 63 66 66
5 9 15 74 300 263 134 180 141 114 97 74 77 45 320 4 145 142 139 149 145 135 139 148 147 149 148 146 144 142 140 139 139 139 138 137 133 129 126 126 125 127 125 122 118 106 36 357 355
38 61 40 90 265 305 350 169 249 79 93 106 105 173 47 37 109 128 141 141 140 133 142 149 151 153 150 149 148 147 144 143 145 148 150 149 146 143 139 140 144 144 145 151 154 166 246 316 331
15 101 29 328 285 330 352 244 113 126 180 180 107 140 134 131 126 147 145 142 150 144 147 156 157 155 154 153 153 150 149 152 153 156 160 159 157 153 153 159 162 162 172 183 191 230 268 293 307
127 88 214 252 295 30 210 259 124 152 146 235 28 94 125 157 154 149 146 147 150 144 143 146 154 161 157 156 156 156 159 163 165 165 166 165 166 167 174 183 183 192 203 218 223 240 262 270 277
109 97 348 264 329 327 110 296 127 68 222 345 355 127 174 165 149 141 145 142 147 152 155 153 150 149 150 162 166 166 169 171 174 174 177 178 178 184 192 197 204 213 220 230 234 239 247 258 261
91 58 276 271 49 10 164 148 285 336 98 295 130 319 143 142 134 134 133 137 144 160 165 160 156 154 155 161 178 176 179 182 184 186 191 190 189 201 206 208 216 221 226 230 237 240 247 253 261
108 129 249 208 244 172 205 32 154 132 192 268 29 211 187 113 146 147 159 158 169 172 176 172 167 165 162 176 183 183 189 186 185 189 197 193 199 203 213 222 227 231 230 237 246 249 251 256 253
199 200 228 280 262 264 192 137 186 155 244 220 200 176 171 154 148 159 168 171 174 180 174 182 179 173 172 179 178 187 196 191 197 202 200 207 206 213 217 220 230 232 237 239 246 252 255 261 240
256 249 218 276 235 273 304 147 179 213 211 204 208 189 171 183 172 168 167 166 173 181 190 181 182 185 183 167 177 186 189 198 206 211 205 202 209 218 219 223 224 213 219 229 240 252 245 250 236
193 265 282 266 250 241 269 142 185 225 250 169 206 199 197 199 130 160 177 184 177 170 181 193 183 187 186 164 175 186 200 203 207 203 208 203 201 213 215 231 220 209 201 224 232 242 246 234 236
274 286 282 289 261 212 190 254 117 229 227 185 187 204 183 311 160 176 181 184 167 173 183 182 191 190 187 176 181 189 196 207 202 197 212 213 214 217 215 226 225 222 212 235 238 234 244 237 251
267 301 310 278 260 210 133 328 224 189 174 204 203 124 92 133 97 192 191 169 162 201 176 181 186 190 187 189 186 182 198 192 205 208 206 212 218 225 225 234 197 205 219 240 256 265 276 304 294
344 96 294 275 202 249 122 254 259 235 145 120 125 123 111 84 79 76 104 137 190 154 161 159 185 178 184 192 185 190 192 194 210 220 205 214 224 209 225 234 237 260 315 330 339 327 321 88 69
7 246 267 298 215 203 154 247 248 191 167 136 135 125 110 97 73 66 75 75 80 127 125 164 162 178 183 199 176 169 164 171 192 197 304 248 243 354 284 279 329 353 15 42 18 28 32 49 29
246 300 303 254 273 165 250 253 252 194 159 151 150 133 124 120 119 99 80 81 88 90 88 90 95 152 162 150 121 134 79 42 39 42 54 86 108 50 13 52 31 45 68 50 34 49 25 62 21
255 252 263 269 266 185 235 227 204 195 153 152 162 153 145 135 143 120 110 98 92 82 90 79 83 54 100 121 118 65 67 65 58 59 60 65 61 66 74 47 39 42 36 61 44 25 29 19 355
262 263 275 285 251 181 268 218 199 184 190 166 164 160 153 144 149 132 118 104 88 97 98 100 91 75 70 96 107 88 98 79 82 76 73 68 67 70 70 69 57 29 27 39 42 51 24 8 4
255 235 260 248 256 320 74 327 265 237 206 157 177 168 159 161 157 153 139 130 121 110 107 100 103 95 75 84 102 97 94 77 66 53 62 55 84 60 75 60 33 54 41 20 16 31 44 354 308
256 233 247 263 351 242 117 258 293 249 236 168 177 174 170 164 154 150 142 132 125 120 103 98 94 87 88 79 88 108 115 114 91 94 89 63 45 80 74 64 59 50 35 41 26 21 16 324 7
248 266 250 236 242 112 172 111 261 300 217 213 188 188 187 169 155 154 145 129 116 103 91 81 85 78 78 86 104 112 110 114 108 108 90 74 52 60 60 56 52 49 39 33 32 18 20 18 14
258 276 304 33 103 263 242 156 250 210 212 197 205 204 171 157 150 143 126 120 117 113 108 101 95 85 85 92 86 95 101 106 114 112 100 83 65 54 54 56 55 49 44 33 22 13 22 20 15
209 69 320 317 300 237 231 262 238 245 233 195 181 185 182 172 161 151 141 138 137 129 122 118 112 102 95 100 97 99 100 102 119 123 119 103 76 50 52 54 43 28 17 25 27 29 14 11 10
249 169 172 235 230 255 206 240 262 235 238 224 190 185 168 165 155 149 145 143 142 138 138 126 116 111 109 110 112 108 108 108 106 118 120 108 104 102 67 57 45 30 25 13 19 22 7 4 354
265 215 203 236 226 225 206 276 294 276 301 281 178 165 169 160 155 148 144 147 143 145 143 137 128 130 116 117 109 99 101 109 117 112 106 103 85 72 51 43 30 13 11 16 12 9 355 1 354
180 204 274 21 205 258 233 231 238 250 243 126 142 164 162 151 152 149 151 152 153 151 150 129 124 131 131 121 129 125 121 117 115 105 94 84 72 62 51 37 26 15 11 6 3 351 351 17 17
282 250 261 252 174 245 258 251 217 230 206 179 177 173 166 157 157 156 162 161 154 149 150 149 148 148 143 139 135 119 122 116 101 100 99 95 79 59 47 36 25 14 7 357 355 348 8 49 35
219 245 198 183 253 193 169 267 315 56 57 53 148 163 165 158 161 162 159 158 160 159 154 155 160 159 156 150 152 127 147 128 119 115 108 101 91 70 67 41 26 12 360 345 347 341 29 28 18